Location: Carrer del Canonge
(41.4901°N, 2.2931°E)
Time: 13:00:21
(UTC+00:00)

Meteor 2-13 Rocket - Visible Passes

Search period start: 16 January 2021 00:00
Search period end: 26 January 2021 00:00
Orbit: 936 x 957 km, 82.5° (Epoch: 16 January)

Date Brightness Start Highest point End Pass type
(mag) Time Alt. Az. Time Alt. Az. Time Alt. Az.
16 Jan 6.8 04:42:26 10° NNE 04:46:58 21° ENE 04:51:27 10° ESE visible
16 Jan 4.5 06:26:10 10° NNW 06:32:15 61° W 06:38:16 10° S visible
16 Jan 4.9 18:06:55 10° SSE 18:12:26 38° E 18:18:00 10° NNE visible
16 Jan 6.0 19:51:55 10° SW 19:57:16 32° WNW 20:02:41 10° N visible
17 Jan 6.2 04:58:36 10° N 05:04:01 31° ENE 05:09:26 10° SE visible
17 Jan 4.4 18:23:07 10° S 18:29:03 59° E 18:35:05 10° NNE visible
17 Jan 6.6 20:09:52 10° WSW 20:14:19 21° WNW 20:18:50 10° NNW visible
18 Jan 5.4 05:15:01 10° N 05:21:00 48° ENE 05:26:54 10° SSE visible
18 Jan 4.4 18:39:41 10° S 18:45:47 89° WNW 18:51:57 10° N visible
18 Jan 7.1 20:28:41 10° W 20:31:31 13° WNW 20:34:22 10° NW visible
19 Jan 7.3 03:50:22 10° NE 03:51:55 11° ENE 03:53:29 10° ENE visible
19 Jan 4.6 05:31:40 10° N 05:37:51 75° E 05:44:00 10° SSE visible
19 Jan 5.6 17:14:02 10° SE 17:18:20 20° E 17:22:41 10° NE visible
19 Jan 5.0 18:56:38 10° SSW 19:02:36 58° W 19:08:40 10° N visible
20 Jan 6.9 04:05:10 10° NNE 04:09:09 18° ENE 04:13:08 10° ESE visible
20 Jan 4.4 05:48:28 10° NNW 05:54:37 72° W 06:00:43 10° S visible
20 Jan 5.1 17:29:34 10° SSE 17:34:51 32° E 17:40:10 10° NNE visible
20 Jan 5.8 19:13:56 10° SW 19:19:31 37° WNW 19:25:11 10° N visible
21 Jan 6.4 04:21:08 10° NNE 04:26:16 27° ENE 04:31:22 10° SE visible
21 Jan 4.7 06:05:27 10° NNW 06:11:17 46° W 06:17:05 10° SSW visible
21 Jan 4.6 17:45:37 10° SSE 17:51:26 50° E 17:57:20 10° NNE visible
21 Jan 6.5 19:31:39 10° WSW 19:36:32 25° WNW 19:41:28 10° NNW visible
22 Jan 5.6 04:37:29 10° N 04:43:16 41° ENE 04:49:01 10° SE visible
22 Jan 5.2 06:22:39 10° NNW 06:27:52 30° W 06:33:03 10° SW visible
22 Jan 4.4 18:02:03 10° S 18:08:08 78° E 18:14:17 10° N visible
22 Jan 7.0 19:50:03 10° WSW 19:53:40 16° WNW 19:57:19 10° NNW visible
23 Jan 4.8 04:54:02 10° N 05:00:11 63° E 05:06:15 10° SSE visible
23 Jan 5.7 06:40:14 10° NW 06:44:21 19° W 06:48:27 10° SW visible
23 Jan 4.8 18:18:50 10° SSW 18:24:54 69° W 18:31:03 10° N visible
24 Jan 7.1 03:28:01 10° NNE 03:31:20 15° ENE 03:34:38 10° E visible
24 Jan 4.3 05:10:47 10° N 05:16:58 85° W 05:23:07 10° S visible
24 Jan 5.6 18:36:00 10° SSW 18:41:47 44° WNW 18:47:39 10° N visible
25 Jan 6.5 03:43:44 10° NNE 03:48:30 23° ENE 03:53:13 10° ESE visible
25 Jan 4.5 05:27:41 10° NNW 05:33:41 55° W 05:39:37 10° SSW visible
25 Jan 6.3 18:53:32 10° SW 18:58:46 29° WNW 19:04:03 10° NNW visible
